| time (UTC) | temp F | wind direction | speed knots | gust knots | rain 1hr in | rain 24hr in | rain mn in | humidity % | barometer mb |
| 20260508050017 | 59 | 0.0 | 3.5 | 0.00 | 0.01 | 0.00 | 80 | 1011.3 | |
| 20260508045017 | 58 | 0.0 | 0.9 | 0.00 | 0.01 | 0.00 | 81 | 1011.3 | |
| 20260508044017 | 57 | 0.0 | 0.9 | 0.00 | 0.01 | 0.00 | 84 | 1011.1 | |
| 20260508043017 | 56 | 0.0 | 0.0 | 0.00 | 0.01 | 0.00 | 85 | 1011.3 | |
| 20260508042017 | 55 | 0.0 | 0.0 | 0.00 | 0.01 | 0.00 | 84 | 1011.2 | |
| 20260508041016 | 56 | 0.0 | 0.9 | 0.00 | 0.01 | 0.00 | 83 | 1011.1 | |
| 20260508040016 | 57 | 0.0 | 0.9 | 0.00 | 0.01 | 0.00 | 82 | 1011.1 | |
| 20260508035016 | 56 | 0.0 | 0.9 | 0.00 | 0.01 | 0.00 | 84 | 1011.0 | |
| 20260508034017 | 55 | 0.0 | 0.9 | 0.00 | 0.01 | 0.00 | 85 | 1010.9 | |
| 20260508033016 | 55 | 0.0 | 0.0 | 0.00 | 0.01 | 0.00 | 85 | 1010.8 | |
| 20260508032037 | 55 | 0.0 | 0.0 | 0.00 | 0.01 | 0.00 | 85 | 1010.9 | |
| 20260508031016 | 55 | 0.0 | 1.7 | 0.00 | 0.01 | 0.00 | 86 | 1011.0 | |
| 20260508030037 | 55 | 0.0 | 1.7 | 0.00 | 0.01 | 0.00 | 86 | 1010.9 | |
| 20260508025016 | 54 | 0.0 | 2.6 | 0.00 | 0.01 | 0.00 | 85 | 1010.9 | |
| 20260508024016 | 55 | 0.0 | 0.0 | 0.00 | 0.01 | 0.00 | 86 | 1010.9 | |
| 20260508023016 | 55 | 0.0 | 1.7 | 0.00 | 0.01 | 0.00 | 85 | 1011.1 | |
| 20260508022016 | 55 | 0.0 | 0.0 | 0.00 | 0.01 | 0.00 | 85 | 1011.2 | |
| 20260508021016 | 55 | 315 | 0.9 | 2.6 | 0.00 | 0.01 | 0.00 | 85 | 1011.2 |
| 20260508020016 | 55 | 0.0 | 2.6 | 0.00 | 0.01 | 0.00 | 84 | 1011.2 | |
| 20260508015016 | 56 | 0.0 | 1.7 | 0.00 | 0.01 | 0.00 | 85 | 1011.3 | |
| 20260508014016 | 55 | 0.0 | 1.7 | 0.00 | 0.01 | 0.00 | 85 | 1011.5 | |
| 20260508013016 | 55 | 0.0 | 0.0 | 0.00 | 0.02 | 0.00 | 84 | 1011.5 | |
| 20260508012016 | 56 | 0.0 | 1.7 | 0.00 | 0.02 | 0.00 | 83 | 1011.6 | |
| 20260508011016 | 56 | 0.0 | 0.9 | 0.00 | 0.02 | 0.00 | 82 | 1011.7 | |
| 20260508010016 | 56 | 315 | 0.9 | 2.6 | 0.00 | 0.03 | 0.00 | 83 | 1011.6 |
| 20260508005036 | 55 | 0.0 | 0.0 | 0.00 | 0.04 | 0.00 | 83 | 1011.7 | |
| 20260508004016 | 56 | 0.0 | 0.0 | 0.00 | 0.04 | 0.00 | 82 | 1011.9 | |
| 20260508003036 | 56 | 0.0 | 0.0 | 0.00 | 0.05 | 0.00 | 81 | 1012.0 | |
| 20260508002016 | 56 | 0.0 | 2.6 | 0.00 | 0.06 | 0.00 | 81 | 1012.0 | |
| 20260508001036 | 57 | 0.0 | 1.7 | 0.00 | 0.06 | 0.00 | 81 | 1012.1 | |
| 20260508000016 | 57 | 0.0 | 0.0 | 0.00 | 0.07 | 0.00 | 80 | 1012.2 | |
| 20260507235015 | 58 | 0.0 | 0.9 | 0.00 | 0.07 | 0.00 | 77 | 1012.2 | |
| 20260507234016 | 59 | 0.0 | 0.0 | 0.00 | 0.07 | 0.00 | 76 | 1012.3 | |
| 20260507233016 | 59 | 0.0 | 1.7 | 0.00 | 0.07 | 0.00 | 77 | 1012.3 | |
| 20260507232016 | 58 | 0.0 | 0.9 | 0.00 | 0.08 | 0.00 | 77 | 1012.4 | |
| 20260507231018 | 59 | 0.0 | 1.7 | 0.00 | 0.08 | 0.00 | 76 | 1012.9 | |
| 20260507230018 | 59 | 0.0 | 0.0 | 0.00 | 0.08 | 0.00 | 75 | 1013.0 | |
| 20260507225018 | 60 | 0.0 | 0.0 | 0.00 | 0.09 | 0.00 | 74 | 1013.3 | |
| 20260507224017 | 61 | 0.0 | 1.7 | 0.00 | 0.09 | 0.00 | 73 | 1013.2 | |
| 20260507223017 | 61 | 0.0 | 1.7 | 0.00 | 0.09 | 0.00 | 72 | 1013.1 | |
| 20260507222017 | 61 | 315 | 3.5 | 5.2 | 0.00 | 0.09 | 0.00 | 72 | 1013.0 |
| 20260507221017 | 62 | 315 | 1.7 | 4.3 | 0.00 | 0.09 | 0.00 | 71 | 1013.0 |
| 20260507220017 | 62 | 315 | 3.5 | 6.1 | 0.00 | 0.09 | 0.09 | 72 | 1012.9 |
| 20260507215017 | 62 | 315 | 4.3 | 7.8 | 0.00 | 0.09 | 0.09 | 71 | 1012.9 |
| 20260507214017 | 62 | 270 | 4.3 | 6.1 | 0.00 | 0.09 | 0.09 | 70 | 1012.9 |
| 20260507213038 | 62 | 248 | 2.6 | 4.3 | 0.00 | 0.09 | 0.09 | 69 | 1013.0 |
| 20260507212017 | 61 | 0.0 | 0.0 | 0.00 | 0.09 | 0.09 | 72 | 1012.9 | |
| 20260507211017 | 61 | 0.0 | 0.0 | 0.00 | 0.09 | 0.09 | 71 | 1013.0 | |
| 20260507210019 | 62 | 0.0 | 0.0 | 0.00 | 0.09 | 0.09 | 70 | 1013.1 | |
| 20260507205017 | 63 | 225 | 2.6 | 3.5 | 0.00 | 0.09 | 0.09 | 68 | 1013.0 |
| 20260507204017 | 63 | 225 | 2.6 | 5.2 | 0.00 | 0.09 | 0.09 | 68 | 1012.9 |
| 20260507203017 | 63 | 225 | 2.6 | 4.3 | 0.00 | 0.09 | 0.09 | 67 | 1012.8 |
| 20260507202017 | 63 | 225 | 0.9 | 2.6 | 0.00 | 0.09 | 0.09 | 69 | 1012.8 |
| 20260507201017 | 62 | 225 | 1.7 | 2.6 | 0.00 | 0.09 | 0.09 | 71 | 1013.0 |
| 20260507200017 | 63 | 225 | 0.9 | 2.6 | 0.00 | 0.09 | 0.09 | 67 | 1012.9 |
| 20260507195017 | 64 | 225 | 3.5 | 3.5 | 0.00 | 0.09 | 0.09 | 64 | 1012.9 |
| 20260507194017 | 65 | 225 | 2.6 | 3.5 | 0.00 | 0.09 | 0.09 | 63 | 1012.8 |
| 20260507193017 | 65 | 225 | 1.7 | 2.6 | 0.00 | 0.09 | 0.09 | 63 | 1012.7 |
| 20260507192037 | 65 | 225 | 1.7 | 2.6 | 0.00 | 0.09 | 0.09 | 62 | 1012.6 |
| 20260507191017 | 65 | 225 | 3.5 | 5.2 | 0.00 | 0.09 | 0.09 | 61 | 1012.6 |
| 20260507190016 | 66 | 225 | 2.6 | 3.5 | 0.00 | 0.09 | 0.09 | 60 | 1012.5 |
| 20260507185017 | 66 | 225 | 2.6 | 4.3 | 0.00 | 0.09 | 0.09 | 60 | 1012.6 |
| 20260507184017 | 67 | 225 | 2.6 | 3.5 | 0.00 | 0.09 | 0.09 | 59 | 1012.7 |
| 20260507183016 | 68 | 225 | 1.7 | 3.5 | 0.00 | 0.09 | 0.09 | 58 | 1012.7 |
| 20260507182017 | 69 | 225 | 1.7 | 3.5 | 0.00 | 0.09 | 0.09 | 57 | 1012.7 |
| 20260507181017 | 70 | 0.0 | 0.0 | 0.00 | 0.09 | 0.09 | 53 | 1012.7 | |
| 20260507180017 | 70 | 225 | 0.9 | 2.6 | 0.00 | 0.09 | 0.09 | 52 | 1012.5 |
| 20260507175016 | 71 | 225 | 0.9 | 2.6 | 0.00 | 0.09 | 0.09 | 51 | 1012.4 |
| 20260507174016 | 72 | 225 | 0.9 | 5.2 | 0.00 | 0.09 | 0.09 | 50 | 1012.5 |
| 20260507173016 | 73 | 0.0 | 1.7 | 0.00 | 0.09 | 0.09 | 49 | 1012.3 | |
| 20260507172016 | 73 | 225 | 1.7 | 5.2 | 0.00 | 0.09 | 0.09 | 48 | 1012.3 |
| 20260507171016 | 73 | 225 | 0.9 | 4.3 | 0.00 | 0.09 | 0.09 | 48 | 1012.3 |
| 20260507170017 | 74 | 225 | 1.7 | 4.3 | 0.00 | 0.09 | 0.09 | 48 | 1012.3 |
| 20260507165017 | 74 | 225 | 1.7 | 4.3 | 0.00 | 0.09 | 0.09 | 50 | 1012.2 |
| 20260507164017 | 74 | 225 | 0.9 | 3.5 | 0.00 | 0.09 | 0.09 | 50 | 1012.3 |
| 20260507163017 | 74 | 248 | 2.6 | 6.1 | 0.00 | 0.09 | 0.09 | 50 | 1012.2 |
| 20260507162017 | 73 | 248 | 3.5 | 8.7 | 0.00 | 0.09 | 0.09 | 52 | 1012.2 |
| 20260507161037 | 74 | 203 | 1.7 | 5.2 | 0.00 | 0.09 | 0.09 | 50 | 1012.3 |
| 20260507160017 | 74 | 203 | 0.9 | 4.3 | 0.00 | 0.09 | 0.09 | 52 | 1012.4 |
| 20260507155017 | 74 | 180 | 0.9 | 3.5 | 0.00 | 0.09 | 0.09 | 52 | 1012.6 |
| 20260507154017 | 75 | 0.0 | 2.6 | 0.00 | 0.09 | 0.09 | 51 | 1012.6 | |
| 20260507153017 | 74 | 180 | 0.9 | 5.2 | 0.00 | 0.09 | 0.09 | 52 | 1012.6 |
| 20260507152037 | 75 | 203 | 0.9 | 4.3 | 0.00 | 0.09 | 0.09 | 51 | 1012.6 |
| 20260507151016 | 74 | 225 | 0.9 | 1.7 | 0.00 | 0.09 | 0.09 | 51 | 1012.6 |
| 20260507150017 | 74 | 225 | 1.7 | 4.3 | 0.00 | 0.09 | 0.09 | 51 | 1012.7 |
| 20260507145037 | 73 | 0.0 | 2.6 | 0.00 | 0.09 | 0.09 | 54 | 1012.7 | |
| 20260507144016 | 73 | 0.0 | 2.6 | 0.00 | 0.09 | 0.09 | 53 | 1012.9 | |
| 20260507143016 | 72 | 225 | 0.9 | 4.3 | 0.00 | 0.09 | 0.09 | 56 | 1012.9 |
| 20260507142016 | 73 | 225 | 0.9 | 3.5 | 0.00 | 0.09 | 0.09 | 55 | 1013.0 |
| 20260507141017 | 73 | 203 | 0.9 | 4.3 | 0.00 | 0.09 | 0.09 | 55 | 1013.1 |
| 20260507140016 | 73 | 203 | 0.9 | 6.1 | 0.00 | 0.09 | 0.09 | 55 | 1013.3 |
| 20260507135016 | 71 | 315 | 1.7 | 7.0 | 0.00 | 0.09 | 0.09 | 58 | 1013.4 |
| 20260507134017 | 72 | 225 | 0.9 | 5.2 | 0.00 | 0.09 | 0.09 | 57 | 1013.4 |
| 20260507133016 | 71 | 248 | 4.3 | 8.7 | 0.00 | 0.09 | 0.09 | 59 | 1013.5 |
| 20260507132036 | 70 | 248 | 3.5 | 7.8 | 0.00 | 0.09 | 0.09 | 60 | 1013.6 |
| 20260507131016 | 71 | 248 | 2.6 | 7.0 | 0.00 | 0.09 | 0.09 | 59 | 1013.7 |
| 20260507130016 | 71 | 248 | 0.9 | 4.3 | 0.00 | 0.09 | 0.09 | 61 | 1013.8 |
| 20260507125016 | 70 | 248 | 3.5 | 7.8 | 0.00 | 0.09 | 0.09 | 59 | 1013.8 |
| 20260507124036 | 72 | 225 | 1.7 | 7.0 | 0.00 | 0.09 | 0.09 | 59 | 1013.8 |
| 20260507123016 | 73 | 225 | 1.7 | 3.5 | 0.00 | 0.09 | 0.09 | 56 | 1013.8 |
| 20260507122016 | 73 | 225 | 0.9 | 4.3 | 0.00 | 0.09 | 0.09 | 55 | 1013.7 |
| 20260507121056 | 73 | 0.0 | 3.5 | 0.00 | 0.09 | 0.09 | 55 | 1013.9 | |
| 20260507120016 | 73 | 248 | 2.6 | 6.1 | 0.00 | 0.09 | 0.09 | 55 | 1014.0 |
| 20260507115016 | 73 | 0.0 | 3.5 | 0.00 | 0.09 | 0.09 | 57 | 1014.0 | |
| 20260507114036 | 72 | 158 | 0.9 | 5.2 | 0.00 | 0.09 | 0.09 | 59 | 1014.0 |
| 20260507113016 | 71 | 180 | 0.9 | 2.6 | 0.00 | 0.09 | 0.09 | 61 | 1014.1 |
| 20260507112056 | 72 | 180 | 0.9 | 2.6 | 0.00 | 0.09 | 0.09 | 58 | 1014.1 |
| 20260507111056 | 72 | 135 | 0.9 | 3.5 | 0.00 | 0.09 | 0.09 | 59 | 1014.2 |
| 20260507110016 | 71 | 135 | 0.9 | 5.2 | 0.00 | 0.09 | 0.09 | 62 | 1014.2 |
| 20260507105016 | 71 | 180 | 0.9 | 3.5 | 0.00 | 0.09 | 0.09 | 58 | 1014.2 |
| 20260507104036 | 72 | 0.0 | 3.5 | 0.00 | 0.09 | 0.09 | 61 | 1014.5 | |
| 20260507103016 | 71 | 113 | 0.9 | 5.2 | 0.00 | 0.09 | 0.09 | 62 | 1014.5 |
| 20260507102016 | 69 | 135 | 0.9 | 3.5 | 0.00 | 0.09 | 0.09 | 64 | 1014.6 |
| 20260507101015 | 70 | 0.0 | 1.7 | 0.00 | 0.09 | 0.09 | 65 | 1014.6 | |
| 20260507100015 | 69 | 203 | 0.9 | 5.2 | 0.00 | 0.10 | 0.09 | 67 | 1014.6 |
| 20260507095018 | 67 | 0.0 | 0.0 | 0.00 | 0.10 | 0.09 | 69 | 1014.5 | |
| 20260507094017 | 66 | 248 | 1.7 | 5.2 | 0.00 | 0.10 | 0.09 | 72 | 1014.5 |
| 20260507093037 | 67 | 270 | 0.9 | 3.5 | 0.00 | 0.10 | 0.09 | 72 | 1014.6 |
| 20260507092018 | 67 | 0.0 | 1.7 | 0.00 | 0.10 | 0.09 | 72 | 1014.7 | |
| 20260507091037 | 65 | 270 | 1.7 | 5.2 | 0.00 | 0.10 | 0.09 | 78 | 1014.7 |
| 20260507090017 | 65 | 270 | 1.7 | 5.2 | 0.00 | 0.10 | 0.09 | 77 | 1014.7 |
| 20260507085018 | 66 | 203 | 1.7 | 4.3 | 0.01 | 0.10 | 0.09 | 75 | 1014.8 |
| 20260507084037 | 66 | 203 | 0.9 | 5.2 | 0.01 | 0.10 | 0.09 | 74 | 1014.7 |
| 20260507083037 | 66 | 0.0 | 4.3 | 0.01 | 0.10 | 0.09 | 76 | 1014.6 | |
| 20260507082017 | 65 | 0.0 | 2.6 | 0.01 | 0.10 | 0.09 | 79 | 1014.7 | |
| 20260507081017 | 64 | 158 | 1.7 | 5.2 | 0.01 | 0.10 | 0.09 | 79 | 1014.8 |
| 20260507080017 | 64 | 0.0 | 2.6 | 0.01 | 0.10 | 0.09 | 83 | 1014.7 | |
| 20260507075017 | 63 | 135 | 1.7 | 5.2 | 0.00 | 0.09 | 0.08 | 82 | 1014.6 |
| 20260507074157 | 63 | 135 | 2.6 | 5.2 | 0.00 | 0.09 | 0.08 | 83 | 1014.5 |
| 20260507073017 | 62 | 135 | 0.9 | 4.3 | 0.00 | 0.09 | 0.08 | 86 | 1014.5 |
| 20260507072017 | 61 | 113 | 0.9 | 3.5 | 0.00 | 0.09 | 0.08 | 86 | 1014.4 |
| 20260507071017 | 60 | 113 | 1.7 | 4.3 | 0.00 | 0.09 | 0.08 | 88 | 1014.6 |
| 20260507070017 | 60 | 113 | 0.9 | 2.6 | 0.00 | 0.09 | 0.08 | 87 | 1014.5 |
| 20260507065037 | 60 | 113 | 0.9 | 3.5 | 0.00 | 0.09 | 0.08 | 88 | 1014.5 |
| 20260507064037 | 59 | 0.0 | 0.9 | 0.00 | 0.09 | 0.08 | 88 | 1014.5 | |
| 20260507063017 | 59 | 0.0 | 0.9 | 0.00 | 0.09 | 0.08 | 89 | 1014.4 | |
| 20260507062017 | 58 | 0.0 | 0.9 | 0.00 | 0.09 | 0.08 | 90 | 1014.4 | |
| 20260507061017 | 58 | 0.0 | 1.7 | 0.00 | 0.09 | 0.08 | 90 | 1014.4 | |
| 20260507060017 | 58 | 113 | 0.9 | 2.6 | 0.00 | 0.09 | 0.08 | 90 | 1014.4 |
| 20260507055017 | 57 | 113 | 0.9 | 2.6 | 0.00 | 0.09 | 0.08 | 91 | 1014.3 |
| 20260507054016 | 57 | 113 | 0.9 | 2.6 | 0.00 | 0.09 | 0.08 | 92 | 1014.2 |
| 20260507053037 | 57 | 113 | 1.7 | 3.5 | 0.00 | 0.10 | 0.08 | 92 | 1014.2 |
| 20260507052017 | 56 | 113 | 0.9 | 2.6 | 0.00 | 0.10 | 0.08 | 93 | 1014.2 |
| 20260507051017 | 56 | 90 | 0.9 | 2.6 | 0.00 | 0.10 | 0.08 | 92 | 1014.2 |